Tracking 34717 objects as of 15-Jul-2026
HD Live streaming from Space Station
objects crossing your sky now

STARLINK-37743

Track STARLINK-37743 now!
10-day predictions
STARLINK-37743 is classified as:


NORAD ID: 69339
Int'l Code: 2026-122L
Perigee: 472.3 km
Apogee: 473.1 km
Inclination: 97.3 °
Period: 93.9 minutes
Semi major axis: 6843 km
RCS: Unknown
Launch date: June 3, 2026
Source: United States (US)
Launch site: AIR FORCE WESTERN TEST RANGE (AFWTR)
Your satellite tracking list
Your tracking list is empty




NASA's NSSDC Master Catalog

Two Line Element Set (TLE):
1 69339U 26122L   26195.92977901  .00007743  00000-0  24195-3 0  9995
2 69339  97.2844 225.5064 0000536 115.7012 244.4286 15.33443043  6445
Source of the keplerian elements: AFSPC